ATLAS 5 CENTAUR DEB, 47245

Orbit data source: Space-Track

ATLAS 5 CENTAUR DEB, 47245 is space debris in HEO originally from a launch on Wed, 17 Oct 2018 UTC launched from the Air Force Eastern Test Range (AFETR). Debris objects in space refer to the collection of defunct objects orbiting the Earth. Examples of debris include non-operational satellites, rocket bodies, and fragments generated from explosions, collisions, or faulty payload assembly.

Loading next visibility...
Identifier
47245, 2018-079EF
Orbit
HEO
Country
Flag of USUS
Related business
Flag of USUnited Launch Alliance/Lockheed Martin (US)
Manufacturer
ULA Decatur
Mission
Spacecraft
Bus & Motor
Unknown
Mass
Unknown
Launch date (UTC)
2018-10-17 (7 years ago)
Launch vehicle
Unknown
Launch site
Air Force Eastern Test Range (AFETR)
Object type
Payload
Rocket body
Debris
Shape & HBR
Unknown shape, 1.1 m
Radar Cross Section
RCS unknown

Expand to show TLE details & history
Last TLE update: 9 months ago

TLE from 9 months ago
0 ATLAS 5 CENTAUR DEB
1 47245U 18079EF  25059.72841595 -.00000136  00000-0  00000-0 0  9990
2 47245  12.6404  68.0647 4922589 271.6590  34.8636  1.87202146 29070
Epoch: 2025-02-28T17:28Z
TLE epoch observation values (Epoch: 2025-02-28T17:28:55.138Z)
Latitude
-0.00007°
Longitude
7.18752°
Altitude
14,385.005 km
Speed
4.905 km/s
True Right ascension
04h 32m 48s
True Declination
0° 00' 00"
Sunlit
Object was in daylight at epoch
Visualization orbit readout
Latitude
Unknown
Longitude
Unknown
Altitude
Unknown
Speed
Unknown
Apparent Right ascension
Unknown
Apparent Declination
Unknown
Sunlit
N/A
Visualization observer readout
Local Sidereal Time
21:28:37
Azimuth
Unknown
Elevation
Unknown
Doppler factor
Unknown
Orbital elements
Apogee altitude
35,124.327 km
Perigee altitude
7,743.076 km
Semi-major axis
27,811.839 km
Eccentricity
0.49226
Inclination
12.6404°
RAAN
68.0647°
Arg. of periapsis
271.659°
True anomaly
88.31289°
Mean anomaly
34.8636°
Eccentric anomaly
59.05284°
Mean motion
0.46795 °/min
Orbital period
769.31 mins
BSTAR
0
Loading maneuver chart data...
Computing Atmospheric mass density...

Documentation

Showing up to 5 results
|